When you browse on this site, cookies collect data to enhance your experience and personalize the content and advertising you see.
Visit our Privacy Policy to learn more. By continuing to use the site, you agree to this use of cookies and data.

Météo par heure à Sidi-bel-Abbès

Ce jour, 29 Septembre, Mardi

Heure Température Précipitation Vent Pression Humidité
00:00 +23°C° 0 mm 2 m/s 720 mmHg 39%
01:00 +21°C° 0 mm 2 m/s 720 mmHg 38%
02:00 +21°C° 0 mm 2 m/s 719 mmHg 38%
03:00 +21°C° 0 mm 2 m/s 719 mmHg 37%
04:00 +21°C° 0 mm 2 m/s 719 mmHg 38%
05:00 +20°C° 0 mm 2 m/s 719 mmHg 38%
06:00 +21°C° 0 mm 1 m/s 719 mmHg 39%
07:00 +24°C° 0 mm 2 m/s 720 mmHg 34%
08:00 +26°C° 0 mm 2 m/s 720 mmHg 29%
09:00 +29°C° 0 mm 2 m/s 721 mmHg 24%
10:00 +30°C° 0 mm 3 m/s 721 mmHg 22%
11:00 +33°C° 0 mm 3 m/s 721 mmHg 21%
12:00 +34°C° 0 mm 4 m/s 721 mmHg 19%
13:00 +34°C° 0 mm 4 m/s 721 mmHg 21%
14:00 +34°C° 0 mm 4 m/s 720 mmHg 23%
15:00 +33°C° 0 mm 4 m/s 720 mmHg 24%
16:00 +31°C° 0 mm 3 m/s 719 mmHg 30%
17:00 +29°C° 0 mm 3 m/s 719 mmHg 36%
18:00 +27°C° 0 mm 2 m/s 719 mmHg 41%
19:00 +27°C° 0 mm 2 m/s 720 mmHg 45%
20:00 +26°C° 0 mm 1 m/s 720 mmHg 49%
21:00 +25°C° 0 mm 1 m/s 720 mmHg 53%
22:00 +24°C° 0 mm 1 m/s 720 mmHg 54%
23:00 +22°C° 0 mm 0 m/s 720 mmHg 55%

Demain, 30 Septembre, Mercredi

Heure Température Précipitation Vent Pression Humidité
00:00 +21°C° 0 mm 0 m/s 720 mmHg 57%
01:00 +23°C° 0 mm 1 m/s 719 mmHg 59%
02:00 +23°C° 0 mm 1 m/s 719 mmHg 62%
03:00 +22°C° 0 mm 1 m/s 719 mmHg 65%
04:00 +21°C° 0 mm 1 m/s 719 mmHg 71%
05:00 +21°C° 0 mm 1 m/s 719 mmHg 76%
06:00 +20°C° 0 mm 1 m/s 719 mmHg 82%
07:00 +22°C° 0 mm 1 m/s 719 mmHg 73%
08:00 +21°C° 0 mm 0 m/s 719 mmHg 64%
09:00 +23°C° 0 mm 0 m/s 720 mmHg 55%
10:00 +27°C° 0 mm 1 m/s 720 mmHg 50%
11:00 +28°C° 0 mm 2 m/s 720 mmHg 46%
12:00 +29°C° 0 mm 3 m/s 719 mmHg 41%
13:00 +29°C° 0 mm 4 m/s 719 mmHg 44%
14:00 +29°C° 0 mm 4 m/s 719 mmHg 46%
15:00 +29°C° 0 mm 5 m/s 718 mmHg 49%
16:00 +28°C° 0 mm 4 m/s 718 mmHg 53%
17:00 +26°C° 0 mm 3 m/s 718 mmHg 58%
18:00 +25°C° 0 mm 2 m/s 718 mmHg 62%
19:00 +24°C° 0 mm 2 m/s 719 mmHg 65%
20:00 +24°C° 0 mm 1 m/s 719 mmHg 67%
21:00 +23°C° 0 mm 1 m/s 719 mmHg 70%
22:00 +23°C° 0 mm 1 m/s 719 mmHg 71%
23:00 +23°C° 0 mm 1 m/s 719 mmHg 72%

Après-demain, 1 Octobre, Jeudi

Heure Température Précipitation Vent Pression Humidité
00:00 +21°C° 0 mm 2 m/s 719 mmHg 73%
01:00 +21°C° 0 mm 2 m/s 718 mmHg 74%
02:00 +21°C° 0 mm 2 m/s 718 mmHg 75%
03:00 +20°C° 0 mm 2 m/s 718 mmHg 76%
04:00 +20°C° 0 mm 2 m/s 718 mmHg 75%
05:00 +20°C° 0 mm 2 m/s 717 mmHg 73%
06:00 +19°C° 0 mm 2 m/s 717 mmHg 72%
07:00 +21°C° 0 mm 3 m/s 718 mmHg 63%
08:00 +23°C° 0 mm 5 m/s 718 mmHg 54%
09:00 +26°C° 0 mm 6 m/s 718 mmHg 45%
10:00 +27°C° 0 mm 7 m/s 718 mmHg 40%
11:00 +28°C° 0 mm 8 m/s 718 mmHg 35%
12:00 +29°C° 0 mm 9 m/s 718 mmHg 29%
13:00 +28°C° 0 mm 9 m/s 718 mmHg 29%
14:00 +28°C° 0 mm 8 m/s 717 mmHg 28%
15:00 +28°C° 0 mm 8 m/s 717 mmHg 28%
16:00 +27°C° 0 mm 7 m/s 717 mmHg 32%
17:00 +24°C° 0 mm 6 m/s 716 mmHg 37%
18:00 +23°C° 0 mm 5 m/s 716 mmHg 41%
19:00 +22°C° 0 mm 4 m/s 716 mmHg 42%
20:00 +22°C° 0 mm 4 m/s 717 mmHg 42%
21:00 +21°C° 0 mm 3 m/s 717 mmHg 42%
22:00 +21°C° 0 mm 4 m/s 716 mmHg 43%
23:00 +21°C° 0 mm 4 m/s 716 mmHg 44%

2 Octobre, Vendredi

Heure Température Précipitation Vent Pression Humidité
00:00 +21°C° 0 mm 4 m/s 715 mmHg 44%
01:00 +20°C° 0 mm 4 m/s 715 mmHg 46%
02:00 +20°C° 0 mm 5 m/s 714 mmHg 47%
03:00 +19°C° 0 mm 5 m/s 714 mmHg 49%
04:00 +19°C° 0 mm 5 m/s 714 mmHg 54%
05:00 +18°C° 0 mm 4 m/s 713 mmHg 60%
06:00 +18°C° 0 mm 4 m/s 713 mmHg 65%
07:00 +19°C° 0 mm 5 m/s 713 mmHg 62%
08:00 +20°C° 0 mm 7 m/s 713 mmHg 59%
09:00 +22°C° 0 mm 8 m/s 714 mmHg 56%
10:00 +23°C° 0 mm 9 m/s 713 mmHg 53%
11:00 +24°C° 0 mm 9 m/s 713 mmHg 49%
12:00 +26°C° 0 mm 10 m/s 713 mmHg 45%
13:00 +26°C° 0 mm 9 m/s 712 mmHg 45%
14:00 +26°C° 0 mm 9 m/s 712 mmHg 45%
15:00 +26°C° 0 mm 8 m/s 711 mmHg 45%
16:00 +23°C° 0 mm 7 m/s 711 mmHg 52%
17:00 +22°C° 0 mm 6 m/s 711 mmHg 59%
18:00 +21°C° 0 mm 5 m/s 711 mmHg 66%
19:00 +20°C° 0 mm 5 m/s 712 mmHg 70%
20:00 +20°C° 0 mm 5 m/s 712 mmHg 74%
21:00 +19°C° 0 mm 4 m/s 713 mmHg 78%
22:00 +19°C° 0.3 mm 5 m/s 713 mmHg 80%
23:00 +17°C° 0.3 mm 6 m/s 713 mmHg 83%

3 Octobre, Samedi

Heure Température Précipitation Vent Pression Humidité
00:00 +16°C° 0.3 mm 7 m/s 713 mmHg 85%
01:00 +16°C° 0.8 mm 8 m/s 712 mmHg 82%
02:00 +15°C° 0.8 mm 9 m/s 712 mmHg 79%
03:00 +15°C° 0.8 mm 9 m/s 712 mmHg 76%
04:00 +13°C° 0.1 mm 9 m/s 713 mmHg 73%
05:00 +13°C° 0.1 mm 9 m/s 713 mmHg 70%
06:00 +13°C° 0.1 mm 9 m/s 713 mmHg 66%
07:00 +13°C° 0 mm 9 m/s 714 mmHg 63%
08:00 +14°C° 0 mm 10 m/s 714 mmHg 59%
09:00 +14°C° 0 mm 10 m/s 715 mmHg 55%
10:00 +16°C° 0 mm 11 m/s 715 mmHg 50%
11:00 +17°C° 0 mm 11 m/s 715 mmHg 44%
12:00 +18°C° 0 mm 12 m/s 715 mmHg 38%
13:00 +18°C° 0 mm 11 m/s 715 mmHg 40%
14:00 +18°C° 0 mm 11 m/s 715 mmHg 42%
15:00 +18°C° 0 mm 11 m/s 715 mmHg 43%
16:00 +17°C° 0 mm 9 m/s 715 mmHg 46%
17:00 +16°C° 0 mm 8 m/s 715 mmHg 48%
18:00 +16°C° 0 mm 7 m/s 715 mmHg 50%
19:00 +15°C° 0 mm 6 m/s 716 mmHg 52%
20:00 +15°C° 0 mm 6 m/s 716 mmHg 54%
21:00 +15°C° 0 mm 5 m/s 717 mmHg 56%
22:00 +15°C° 0 mm 5 m/s 717 mmHg 56%
23:00 +14°C° 0 mm 4 m/s 717 mmHg 56%

4 Octobre, Dimanche

Heure Température Précipitation Vent Pression Humidité
00:00 +14°C° 0 mm 4 m/s 717 mmHg 57%
01:00 +14°C° 0 mm 4 m/s 717 mmHg 59%
02:00 +13°C° 0 mm 4 m/s 716 mmHg 61%
03:00 +13°C° 0 mm 4 m/s 716 mmHg 63%
04:00 +13°C° 0 mm 4 m/s 717 mmHg 64%
05:00 +13°C° 0 mm 4 m/s 717 mmHg 65%
06:00 +13°C° 0 mm 4 m/s 717 mmHg 67%
07:00 +14°C° 0 mm 4 m/s 718 mmHg 61%
08:00 +15°C° 0 mm 5 m/s 718 mmHg 55%
09:00 +17°C° 0 mm 6 m/s 719 mmHg 49%
10:00 +19°C° 0 mm 6 m/s 719 mmHg 44%
11:00 +20°C° 0 mm 6 m/s 719 mmHg 38%
12:00 +21°C° 0 mm 6 m/s 719 mmHg 32%
13:00 +21°C° 0 mm 6 m/s 718 mmHg 31%
14:00 +21°C° 0 mm 6 m/s 718 mmHg 29%
15:00 +22°C° 0 mm 6 m/s 718 mmHg 28%
16:00 +21°C° 0 mm 6 m/s 718 mmHg 35%
17:00 +19°C° 0 mm 5 m/s 718 mmHg 42%
18:00 +18°C° 0 mm 4 m/s 718 mmHg 49%
19:00 +18°C° 0 mm 4 m/s 718 mmHg 52%
20:00 +17°C° 0 mm 3 m/s 719 mmHg 54%
21:00 +17°C° 0 mm 2 m/s 719 mmHg 57%
22:00 +17°C° 0 mm 3 m/s 719 mmHg 58%
23:00 +16°C° 0 mm 3 m/s 719 mmHg 60%
Voir plus